Weather History for Tinker AFB, OK

Change the Weather History Date:

Tuesday, November 19, 2013

  Actual Average Record
Temperature  
Mean Temperature 56 °F -  
Max Temperature 61 °F 56 °F 77 °F (2011)
Min Temperature 51 °F 38 °F 30 °F (2000)
Degree Days  
Heating Degree Days 9    
Growing Degree Days 6 (Base 50)    
Moisture  
Dew Point 31 °F    
Average Humidity 41    
Maximum Humidity 57    
Minimum Humidity 26    
Precipitation  
Precipitation 0.00 in - - ()
Sea Level Pressure  
Sea Level Pressure 30.09 in    
Wind  
Wind Speed 11 mph (SSE)    
Max Wind Speed 18 mph    
Max Gust Speed 28 mph    
Visibility 10 miles    
Events      
Averages and records for this station are not official NWS values.
T = Trace of Precipitation, MM = Missing Value Source: NWS Daily Summary

Daily Weather History Graph

Daily Weather History Graph

Search for Another Location

Airport:

Trip Planner

Search our weather history database for the weather conditions in past years. The results will help you decide how hot, cold, wet, or windy it might be!

Date:

Astronomy

Nov. 19, 2013 Rise Set
Actual Time 7:09 AM CST 5:20 PM CST
Civil Twilight 6:41 AM CST 5:47 PM CST
Nautical Twilight 6:10 AM CST 6:18 PM CST
Astronomical Twilight 5:40 AM CST 6:49 PM CST
Moon 7:13 PM CST (11/19) 8:48 AM CST (11/19)
Length of Visible Light 11h 06m
Length of Day
10h 11m
Waning Gibbous, 96% of the Moon is Illuminated
Nov 19
Waning Gibbous
Nov 25
Last Quarter
Dec 2
New
Dec 9
First Quarter
Dec 17
Full

Hourly Weather History & Observations

Time (CST) Temp. Dew Point Humidity Pressure Visibility Wind Dir Wind Speed Gust Speed Precip Events Conditions
12:58 AM 51.6 °F 32.9 °F 49% 30.21 in 10.0 mi SE 10.4 mph - N/A   Mostly Cloudy
1:58 AM 52.5 °F 34.0 °F 49% 30.19 in 10.0 mi SE 9.2 mph - N/A   Mostly Cloudy
2:58 AM 52.5 °F 34.5 °F 50% 30.18 in 10.0 mi SE 9.2 mph - N/A   Scattered Clouds
3:58 AM 53.1 °F 35.2 °F 51% 30.18 in 10.0 mi SE 10.4 mph - N/A   Mostly Cloudy
4:58 AM 52.5 °F 36.0 °F 53% 30.18 in 10.0 mi SE 11.5 mph - N/A   Scattered Clouds
5:58 AM 51.4 °F 35.1 °F 54% 30.17 in 10.0 mi SSE 5.8 mph - N/A   Mostly Cloudy
6:58 AM 51.4 °F 36.5 °F 57% 30.18 in 10.0 mi SSE 8.1 mph - N/A   Overcast
7:58 AM 52.7 °F 36.0 °F 53% 30.18 in 10.0 mi SE 9.2 mph - N/A   Overcast
8:58 AM 53.6 °F 33.3 °F 46% 30.18 in 10.0 mi SSE 10.4 mph 18.4 mph N/A   Overcast
9:58 AM 54.9 °F 31.8 °F 42% 30.18 in 10.0 mi South 16.1 mph 23.0 mph N/A   Overcast
10:58 AM 56.3 °F 32.0 °F 40% 30.16 in 10.0 mi SSE 12.7 mph 19.6 mph N/A   Mostly Cloudy
11:58 AM 57.7 °F 30.2 °F 35% 30.14 in 10.0 mi South 15.0 mph 24.2 mph N/A   Mostly Cloudy
12:58 PM 59.4 °F 26.8 °F 29% 30.09 in 10.0 mi South 15.0 mph 24.2 mph N/A   Mostly Cloudy
1:58 PM 59.4 °F 26.2 °F 28% 30.06 in 10.0 mi South 15.0 mph 23.0 mph N/A   Mostly Cloudy
2:58 PM 61.0 °F 26.1 °F 26% 30.02 in 10.0 mi South 15.0 mph 23.0 mph N/A   Scattered Clouds
3:58 PM 60.1 °F 25.0 °F 26% 29.99 in 10.0 mi SSE 13.8 mph 21.9 mph N/A   Clear
4:58 PM 57.7 °F 25.0 °F 28% 30.00 in 10.0 mi SSE 12.7 mph 19.6 mph N/A   Clear
5:58 PM 55.6 °F 25.0 °F 31% 29.99 in 10.0 mi SE 10.4 mph - N/A   Mostly Cloudy
6:58 PM 54.3 °F 26.8 °F 35% 29.99 in 10.0 mi SSE 10.4 mph - N/A   Mostly Cloudy
7:58 PM 53.6 °F 26.8 °F 36% 29.98 in 10.0 mi SSE 10.4 mph 19.6 mph N/A   Partly Cloudy
8:58 PM 54.0 °F 28.4 °F 37% 29.97 in 10.0 mi SSE 12.7 mph 20.7 mph N/A   Mostly Cloudy
9:58 PM 54.7 °F 29.7 °F 38% 29.97 in 10.0 mi South 18.4 mph 27.6 mph N/A   Mostly Cloudy
10:58 PM 54.0 °F 29.5 °F 39% 29.99 in 10.0 mi SSE 16.1 mph - N/A   Mostly Cloudy
11:58 PM 52.9 °F 29.3 °F 40% 29.96 in 10.0 mi SSE 15.0 mph 25.3 mph N/A   Scattered Clouds